owner,sensor,date,latitude,longitude,vertical_datum,sea_water_practical_salinity,qcFlag 
NERRS,ioos:station:NOAA.NERRS:wkbfrwq:1,2017-02-01T00:45:00Z,30.4162,-87.8228,2.12,5.8,1111122 
NERRS,ioos:station:NOAA.NERRS:wkbfrwq:1,2017-02-01T01:45:00Z,30.4162,-87.8228,2.15,5.1,1111122 
NERRS,ioos:station:NOAA.NERRS:wkbfrwq:1,2017-02-01T02:45:00Z,30.4162,-87.8228,2.16,3.8,1111122 
NERRS,ioos:station:NOAA.NERRS:wkbfrwq:1,2017-02-01T03:45:00Z,30.4162,-87.8228,2.16,4.6,1111122 
NERRS,ioos:station:NOAA.NERRS:wkbfrwq:1,2017-02-01T04:45:00Z,30.4162,-87.8228,2.19,5.8,1111122 
NERRS,ioos:station:NOAA.NERRS:wkbfrwq:1,2017-02-01T05:45:00Z,30.4162,-87.8228,2.21,4.0,1111122 
NERRS,ioos:station:NOAA.NERRS:wkbfrwq:1,2017-02-01T07:45:00Z,30.4162,-87.8228,2.2,4.5,1111122 
NERRS,ioos:station:NOAA.NERRS:wkbfrwq:1,2017-02-01T08:45:00Z,30.4162,-87.8228,2.18,4.9,1111122 
NERRS,ioos:station:NOAA.NERRS:wkbfrwq:1,2017-02-01T09:45:00Z,30.4162,-87.8228,2.15,4.4,1111122 
NERRS,ioos:station:NOAA.NERRS:wkbfrwq:1,2017-02-01T10:45:00Z,30.4162,-87.8228,2.11,3.5,1111122 
NERRS,ioos:station:NOAA.NERRS:wkbfrwq:1,2017-02-01T11:45:00Z,30.4162,-87.8228,2.08,4.7,1111122 
NERRS,ioos:station:NOAA.NERRS:wkbfrwq:1,2017-02-01T12:45:00Z,30.4162,-87.8228,2.04,4.2,1111122 
NERRS,ioos:station:NOAA.NERRS:wkbfrwq:1,2017-02-01T13:45:00Z,30.4162,-87.8228,2.0,3.9,1111122 
NERRS,ioos:station:NOAA.NERRS:wkbfrwq:1,2017-02-01T14:45:00Z,30.4162,-87.8228,1.99,4.6,1111122 
NERRS,ioos:station:NOAA.NERRS:wkbfrwq:1,2017-02-01T15:45:00Z,30.4162,-87.8228,1.99,5.3,1111122 
NERRS,ioos:station:NOAA.NERRS:wkbfrwq:1,2017-02-01T16:45:00Z,30.4162,-87.8228,2.02,4.9,1111122 
NERRS,ioos:station:NOAA.NERRS:wkbfrwq:1,2017-02-01T17:45:00Z,30.4162,-87.8228,2.03,4.8,1111122 
NERRS,ioos:station:NOAA.NERRS:wkbfrwq:1,2017-02-01T18:45:00Z,30.4162,-87.8228,2.05,4.8,1111122 
NERRS,ioos:station:NOAA.NERRS:wkbfrwq:1,2017-02-01T19:45:00Z,30.4162,-87.8228,2.09,5.0,1111122 
NERRS,ioos:station:NOAA.NERRS:wkbfrwq:1,2017-02-01T20:45:00Z,30.4162,-87.8228,2.13,4.8,1111122 
NERRS,ioos:station:NOAA.NERRS:wkbfrwq:1,2017-02-01T21:45:00Z,30.4162,-87.8228,2.16,4.2,1111122 
NERRS,ioos:station:NOAA.NERRS:wkbfrwq:1,2017-02-01T22:45:00Z,30.4162,-87.8228,2.17,4.4,1111122 
NERRS,ioos:station:NOAA.NERRS:wkbfrwq:1,2017-02-01T23:45:00Z,30.4162,-87.8228,2.18,4.9,1111122 
NERRS,ioos:station:NOAA.NERRS:wkbfrwq:1,2017-02-02T00:45:00Z,30.4162,-87.8228,2.16,4.0,1111122 
NERRS,ioos:station:NOAA.NERRS:wkbfrwq:1,2017-02-02T01:45:00Z,30.4162,-87.8228,2.14,4.2,1111122 
NERRS,ioos:station:NOAA.NERRS:wkbfrwq:1,2017-02-02T02:45:00Z,30.4162,-87.8228,2.12,5.1,1111122 
NERRS,ioos:station:NOAA.NERRS:wkbfrwq:1,2017-02-02T03:45:00Z,30.4162,-87.8228,2.12,5.3,1111122 
NERRS,ioos:station:NOAA.NERRS:wkbfrwq:1,2017-02-02T04:45:00Z,30.4162,-87.8228,2.12,4.6,1111122 
NERRS,ioos:station:NOAA.NERRS:wkbfrwq:1,2017-02-02T05:45:00Z,30.4162,-87.8228,2.11,4.3,1111122 
NERRS,ioos:station:NOAA.NERRS:wkbfrwq:1,2017-02-02T06:45:00Z,30.4162,-87.8228,2.13,4.3,1111122 
NERRS,ioos:station:NOAA.NERRS:wkbfrwq:1,2017-02-02T07:45:00Z,30.4162,-87.8228,2.14,4.3,1111122 
NERRS,ioos:station:NOAA.NERRS:wkbfrwq:1,2017-02-02T08:45:00Z,30.4162,-87.8228,2.12,4.2,1111122 
NERRS,ioos:station:NOAA.NERRS:wkbfrwq:1,2017-02-02T09:45:00Z,30.4162,-87.8228,2.12,4.4,1111122 
NERRS,ioos:station:NOAA.NERRS:wkbfrwq:1,2017-02-02T10:45:00Z,30.4162,-87.8228,2.13,4.3,1111122 
NERRS,ioos:station:NOAA.NERRS:wkbfrwq:1,2017-02-02T11:45:00Z,30.4162,-87.8228,2.11,4.3,1111122 
NERRS,ioos:station:NOAA.NERRS:wkbfrwq:1,2017-02-02T12:45:00Z,30.4162,-87.8228,2.08,4.1,1111122 
NERRS,ioos:station:NOAA.NERRS:wkbfrwq:1,2017-02-02T13:45:00Z,30.4162,-87.8228,2.05,4.9,1111122 
NERRS,ioos:station:NOAA.NERRS:wkbfrwq:1,2017-02-02T14:45:00Z,30.4162,-87.8228,2.04,4.5,1111122 
NERRS,ioos:station:NOAA.NERRS:wkbfrwq:1,2017-02-02T15:45:00Z,30.4162,-87.8228,2.07,4.5,1111122 
NERRS,ioos:station:NOAA.NERRS:wkbfrwq:1,2017-02-02T16:45:00Z,30.4162,-87.8228,2.11,4.2,1111122 
NERRS,ioos:station:NOAA.NERRS:wkbfrwq:1,2017-02-02T17:45:00Z,30.4162,-87.8228,2.13,4.2,1111122 
NERRS,ioos:station:NOAA.NERRS:wkbfrwq:1,2017-02-02T18:45:00Z,30.4162,-87.8228,2.14,4.4,1111122 
NERRS,ioos:station:NOAA.NERRS:wkbfrwq:1,2017-02-02T19:45:00Z,30.4162,-87.8228,2.15,4.6,1111122 
NERRS,ioos:station:NOAA.NERRS:wkbfrwq:1,2017-02-02T20:45:00Z,30.4162,-87.8228,2.18,4.5,1111122 
NERRS,ioos:station:NOAA.NERRS:wkbfrwq:1,2017-02-02T21:45:00Z,30.4162,-87.8228,2.21,4.6,1111122 
NERRS,ioos:station:NOAA.NERRS:wkbfrwq:1,2017-02-02T22:45:00Z,30.4162,-87.8228,2.24,4.6,1111122 
NERRS,ioos:station:NOAA.NERRS:wkbfrwq:1,2017-02-02T23:45:00Z,30.4162,-87.8228,2.23,4.3,1111122 
NERRS,ioos:station:NOAA.NERRS:wkbfrwq:1,2017-02-03T00:45:00Z,30.4162,-87.8228,2.2,4.6,1111122 
NERRS,ioos:station:NOAA.NERRS:wkbfrwq:1,2017-02-03T01:45:00Z,30.4162,-87.8228,2.16,4.5,1111122 
NERRS,ioos:station:NOAA.NERRS:wkbfrwq:1,2017-02-03T02:45:00Z,30.4162,-87.8228,2.13,4.4,1111122 
NERRS,ioos:station:NOAA.NERRS:wkbfrwq:1,2017-02-03T03:45:00Z,30.4162,-87.8228,2.1,4.4,1111122 
NERRS,ioos:station:NOAA.NERRS:wkbfrwq:1,2017-02-03T04:45:00Z,30.4162,-87.8228,2.08,4.5,1111122 
NERRS,ioos:station:NOAA.NERRS:wkbfrwq:1,2017-02-03T05:45:00Z,30.4162,-87.8228,2.09,4.9,1111122 
NERRS,ioos:station:NOAA.NERRS:wkbfrwq:1,2017-02-03T06:45:00Z,30.4162,-87.8228,2.07,4.4,1111122 
NERRS,ioos:station:NOAA.NERRS:wkbfrwq:1,2017-02-03T07:45:00Z,30.4162,-87.8228,2.03,3.8,1111122 
NERRS,ioos:station:NOAA.NERRS:wkbfrwq:1,2017-02-03T08:45:00Z,30.4162,-87.8228,2.02,4.6,1111122 
NERRS,ioos:station:NOAA.NERRS:wkbfrwq:1,2017-02-03T09:45:00Z,30.4162,-87.8228,2.05,4.6,1111122 
NERRS,ioos:station:NOAA.NERRS:wkbfrwq:1,2017-02-03T10:45:00Z,30.4162,-87.8228,2.09,4.1,1111122 
NERRS,ioos:station:NOAA.NERRS:wkbfrwq:1,2017-02-03T11:45:00Z,30.4162,-87.8228,2.08,4.1,1111122 
NERRS,ioos:station:NOAA.NERRS:wkbfrwq:1,2017-02-03T12:45:00Z,30.4162,-87.8228,2.05,4.0,1111122 
NERRS,ioos:station:NOAA.NERRS:wkbfrwq:1,2017-02-03T13:45:00Z,30.4162,-87.8228,2.08,4.2,1111122 
NERRS,ioos:station:NOAA.NERRS:wkbfrwq:1,2017-02-03T14:45:00Z,30.4162,-87.8228,2.11,4.3,1111122 
NERRS,ioos:station:NOAA.NERRS:wkbfrwq:1,2017-02-03T15:45:00Z,30.4162,-87.8228,2.14,4.2,1111122 
NERRS,ioos:station:NOAA.NERRS:wkbfrwq:1,2017-02-03T16:45:00Z,30.4162,-87.8228,2.14,4.1,1111122 
NERRS,ioos:station:NOAA.NERRS:wkbfrwq:1,2017-02-03T17:45:00Z,30.4162,-87.8228,2.14,4.1,1111122 
NERRS,ioos:station:NOAA.NERRS:wkbfrwq:1,2017-02-03T18:45:00Z,30.4162,-87.8228,2.17,4.2,1111122 
NERRS,ioos:station:NOAA.NERRS:wkbfrwq:1,2017-02-03T19:45:00Z,30.4162,-87.8228,2.17,1.9,1111122 
NERRS,ioos:station:NOAA.NERRS:wkbfrwq:1,2017-02-03T20:45:00Z,30.4162,-87.8228,2.1,2.0,1111122 
NERRS,ioos:station:NOAA.NERRS:wkbfrwq:1,2017-02-03T21:45:00Z,30.4162,-87.8228,2.08,3.0,1111122 
NERRS,ioos:station:NOAA.NERRS:wkbfrwq:1,2017-02-03T23:45:00Z,30.4162,-87.8228,2.13,1.8,1111122 
NERRS,ioos:station:NOAA.NERRS:wkbfrwq:1,2017-02-04T00:45:00Z,30.4162,-87.8228,2.08,1.8,1111122 
NERRS,ioos:station:NOAA.NERRS:wkbfrwq:1,2017-02-04T01:45:00Z,30.4162,-87.8228,2.05,2.5,1111122 
NERRS,ioos:station:NOAA.NERRS:wkbfrwq:1,2017-02-04T03:45:00Z,30.4162,-87.8228,1.98,1.9,1111122 
NERRS,ioos:station:NOAA.NERRS:wkbfrwq:1,2017-02-04T04:45:00Z,30.4162,-87.8228,1.97,3.7,1111122 
NERRS,ioos:station:NOAA.NERRS:wkbfrwq:1,2017-02-04T05:45:00Z,30.4162,-87.8228,1.95,4.2,1111122 
NERRS,ioos:station:NOAA.NERRS:wkbfrwq:1,2017-02-04T06:45:00Z,30.4162,-87.8228,0.0,1.8,1111122 
NERRS,ioos:station:NOAA.NERRS:wkbfrwq:1,2017-02-04T07:45:00Z,30.4162,-87.8228,1.84,2.2,1111122 
NERRS,ioos:station:NOAA.NERRS:wkbfrwq:1,2017-02-04T08:45:00Z,30.4162,-87.8228,1.78,1.6,1111122 
NERRS,ioos:station:NOAA.NERRS:wkbfrwq:1,2017-02-04T09:45:00Z,30.4162,-87.8228,1.74,1.6,1111122 
NERRS,ioos:station:NOAA.NERRS:wkbfrwq:1,2017-02-04T10:45:00Z,30.4162,-87.8228,1.75,4.8,1111122 
NERRS,ioos:station:NOAA.NERRS:wkbfrwq:1,2017-02-04T11:45:00Z,30.4162,-87.8228,1.78,2.8,1111122 
NERRS,ioos:station:NOAA.NERRS:wkbfrwq:1,2017-02-04T12:45:00Z,30.4162,-87.8228,1.8,2.7,1111122 
NERRS,ioos:station:NOAA.NERRS:wkbfrwq:1,2017-02-04T13:45:00Z,30.4162,-87.8228,1.81,2.7,1111122 
NERRS,ioos:station:NOAA.NERRS:wkbfrwq:1,2017-02-04T14:45:00Z,30.4162,-87.8228,1.82,2.7,1111122 
NERRS,ioos:station:NOAA.NERRS:wkbfrwq:1,2017-02-04T15:45:00Z,30.4162,-87.8228,1.9,2.3,1111122 
NERRS,ioos:station:NOAA.NERRS:wkbfrwq:1,2017-02-04T17:45:00Z,30.4162,-87.8228,0.0,3.4,1111122 
NERRS,ioos:station:NOAA.NERRS:wkbfrwq:1,2017-02-04T18:45:00Z,30.4162,-87.8228,2.15,3.3,1111122 
NERRS,ioos:station:NOAA.NERRS:wkbfrwq:1,2017-02-04T20:45:00Z,30.4162,-87.8228,2.25,3.2,1111122 
NERRS,ioos:station:NOAA.NERRS:wkbfrwq:1,2017-02-04T21:45:00Z,30.4162,-87.8228,2.29,3.2,1111122 
NERRS,ioos:station:NOAA.NERRS:wkbfrwq:1,2017-02-04T22:45:00Z,30.4162,-87.8228,2.32,3.3,1111122 
NERRS,ioos:station:NOAA.NERRS:wkbfrwq:1,2017-02-04T23:45:00Z,30.4162,-87.8228,2.31,3.1,1111122 
NERRS,ioos:station:NOAA.NERRS:wkbfrwq:1,2017-02-05T01:45:00Z,30.4162,-87.8228,2.25,3.2,1111122 
NERRS,ioos:station:NOAA.NERRS:wkbfrwq:1,2017-02-05T02:45:00Z,30.4162,-87.8228,2.19,3.0,1111122 
NERRS,ioos:station:NOAA.NERRS:wkbfrwq:1,2017-02-05T03:45:00Z,30.4162,-87.8228,2.12,2.7,1111122 
NERRS,ioos:station:NOAA.NERRS:wkbfrwq:1,2017-02-05T04:45:00Z,30.4162,-87.8228,2.07,2.7,1111122 
NERRS,ioos:station:NOAA.NERRS:wkbfrwq:1,2017-02-05T05:45:00Z,30.4162,-87.8228,2.03,2.7,1111122 
NERRS,ioos:station:NOAA.NERRS:wkbfrwq:1,2017-02-05T06:45:00Z,30.4162,-87.8228,1.96,2.5,1111122 
NERRS,ioos:station:NOAA.NERRS:wkbfrwq:1,2017-02-05T07:45:00Z,30.4162,-87.8228,1.9,2.7,1111122 
NERRS,ioos:station:NOAA.NERRS:wkbfrwq:1,2017-02-05T08:45:00Z,30.4162,-87.8228,1.86,2.4,1111122 
NERRS,ioos:station:NOAA.NERRS:wkbfrwq:1,2017-02-05T09:45:00Z,30.4162,-87.8228,1.84,3.0,1111122 
NERRS,ioos:station:NOAA.NERRS:wkbfrwq:1,2017-02-05T10:45:00Z,30.4162,-87.8228,1.84,3.6,1111122 
NERRS,ioos:station:NOAA.NERRS:wkbfrwq:1,2017-02-05T11:45:00Z,30.4162,-87.8228,1.86,3.6,1111122 
NERRS,ioos:station:NOAA.NERRS:wkbfrwq:1,2017-02-05T12:45:00Z,30.4162,-87.8228,1.91,3.6,1111122 
NERRS,ioos:station:NOAA.NERRS:wkbfrwq:1,2017-02-05T14:45:00Z,30.4162,-87.8228,2.02,3.2,1111122 
NERRS,ioos:station:NOAA.NERRS:wkbfrwq:1,2017-02-05T15:45:00Z,30.4162,-87.8228,2.1,3.0,1111122 
NERRS,ioos:station:NOAA.NERRS:wkbfrwq:1,2017-02-05T16:45:00Z,30.4162,-87.8228,2.13,3.0,1111122 
NERRS,ioos:station:NOAA.NERRS:wkbfrwq:1,2017-02-05T17:45:00Z,30.4162,-87.8228,2.15,3.1,1111122 
NERRS,ioos:station:NOAA.NERRS:wkbfrwq:1,2017-02-05T18:45:00Z,30.4162,-87.8228,2.17,3.4,1111122 
NERRS,ioos:station:NOAA.NERRS:wkbfrwq:1,2017-02-05T19:45:00Z,30.4162,-87.8228,2.22,3.1,1111122 
NERRS,ioos:station:NOAA.NERRS:wkbfrwq:1,2017-02-05T20:45:00Z,30.4162,-87.8228,2.27,3.2,1111122 
NERRS,ioos:station:NOAA.NERRS:wkbfrwq:1,2017-02-05T21:45:00Z,30.4162,-87.8228,0.0,3.1,1111122 
NERRS,ioos:station:NOAA.NERRS:wkbfrwq:1,2017-02-05T22:45:00Z,30.4162,-87.8228,2.28,2.9,1111122 
NERRS,ioos:station:NOAA.NERRS:wkbfrwq:1,2017-02-05T23:45:00Z,30.4162,-87.8228,2.29,3.4,1111122 
NERRS,ioos:station:NOAA.NERRS:wkbfrwq:1,2017-02-06T00:45:00Z,30.4162,-87.8228,2.27,3.3,1111122 
NERRS,ioos:station:NOAA.NERRS:wkbfrwq:1,2017-02-06T01:45:00Z,30.4162,-87.8228,2.24,3.2,1111122 
NERRS,ioos:station:NOAA.NERRS:wkbfrwq:1,2017-02-06T02:45:00Z,30.4162,-87.8228,2.2,3.1,1111122 
NERRS,ioos:station:NOAA.NERRS:wkbfrwq:1,2017-02-06T03:45:00Z,30.4162,-87.8228,2.14,2.6,1111122 
NERRS,ioos:station:NOAA.NERRS:wkbfrwq:1,2017-02-06T04:45:00Z,30.4162,-87.8228,2.08,2.6,1111122 
NERRS,ioos:station:NOAA.NERRS:wkbfrwq:1,2017-02-06T08:45:00Z,30.4162,-87.8228,1.83,2.0,1111122 
NERRS,ioos:station:NOAA.NERRS:wkbfrwq:1,2017-02-06T09:45:00Z,30.4162,-87.8228,1.79,1.9,1111122 
NERRS,ioos:station:NOAA.NERRS:wkbfrwq:1,2017-02-06T10:45:00Z,30.4162,-87.8228,1.76,2.8,1111122 
NERRS,ioos:station:NOAA.NERRS:wkbfrwq:1,2017-02-06T11:45:00Z,30.4162,-87.8228,1.76,3.1,1111122 
NERRS,ioos:station:NOAA.NERRS:wkbfrwq:1,2017-02-06T12:45:00Z,30.4162,-87.8228,1.77,3.4,1111122 
NERRS,ioos:station:NOAA.NERRS:wkbfrwq:1,2017-02-06T14:45:00Z,30.4162,-87.8228,1.9,2.8,1111122 
NERRS,ioos:station:NOAA.NERRS:wkbfrwq:1,2017-02-06T15:45:00Z,30.4162,-87.8228,1.98,2.8,1111122 
NERRS,ioos:station:NOAA.NERRS:wkbfrwq:1,2017-02-06T16:45:00Z,30.4162,-87.8228,2.05,3.0,1111122 
NERRS,ioos:station:NOAA.NERRS:wkbfrwq:1,2017-02-06T17:45:00Z,30.4162,-87.8228,2.1,3.2,1111122 
NERRS,ioos:station:NOAA.NERRS:wkbfrwq:1,2017-02-06T18:45:00Z,30.4162,-87.8228,2.14,3.2,1111122 
NERRS,ioos:station:NOAA.NERRS:wkbfrwq:1,2017-02-06T19:45:00Z,30.4162,-87.8228,2.2,3.3,1111122 
NERRS,ioos:station:NOAA.NERRS:wkbfrwq:1,2017-02-06T20:45:00Z,30.4162,-87.8228,2.25,3.3,1111122 
NERRS,ioos:station:NOAA.NERRS:wkbfrwq:1,2017-02-06T21:45:00Z,30.4162,-87.8228,2.3,3.4,1111122 
NERRS,ioos:station:NOAA.NERRS:wkbfrwq:1,2017-02-06T23:45:00Z,30.4162,-87.8228,2.37,3.4,1111122 
NERRS,ioos:station:NOAA.NERRS:wkbfrwq:1,2017-02-07T01:45:00Z,30.4162,-87.8228,2.37,3.4,1111122 
NERRS,ioos:station:NOAA.NERRS:wkbfrwq:1,2017-02-07T02:45:00Z,30.4162,-87.8228,2.36,3.4,1111122 
NERRS,ioos:station:NOAA.NERRS:wkbfrwq:1,2017-02-07T04:45:00Z,30.4162,-87.8228,2.26,2.9,1111122 
NERRS,ioos:station:NOAA.NERRS:wkbfrwq:1,2017-02-07T05:45:00Z,30.4162,-87.8228,2.18,2.7,1111122 
NERRS,ioos:station:NOAA.NERRS:wkbfrwq:1,2017-02-07T06:45:00Z,30.4162,-87.8228,2.08,2.5,1111122 
NERRS,ioos:station:NOAA.NERRS:wkbfrwq:1,2017-02-07T07:45:00Z,30.4162,-87.8228,2.02,2.3,1111122 
NERRS,ioos:station:NOAA.NERRS:wkbfrwq:1,2017-02-07T08:45:00Z,30.4162,-87.8228,1.96,2.3,1111122 
NERRS,ioos:station:NOAA.NERRS:wkbfrwq:1,2017-02-07T09:45:00Z,30.4162,-87.8228,1.9,2.6,1111122 
NERRS,ioos:station:NOAA.NERRS:wkbfrwq:1,2017-02-07T14:45:00Z,30.4162,-87.8228,1.83,2.8,1111122 
NERRS,ioos:station:NOAA.NERRS:wkbfrwq:1,2017-02-07T15:45:00Z,30.4162,-87.8228,1.94,2.0,1111122 
NERRS,ioos:station:NOAA.NERRS:wkbfrwq:1,2017-02-07T16:45:00Z,30.4162,-87.8228,2.03,2.5,1111122 
NERRS,ioos:station:NOAA.NERRS:wkbfrwq:1,2017-02-07T21:45:00Z,30.4162,-87.8228,2.27,2.9,1111122 
NERRS,ioos:station:NOAA.NERRS:wkbfrwq:1,2017-02-07T22:45:00Z,30.4162,-87.8228,2.57,3.2,1111122 
NERRS,ioos:station:NOAA.NERRS:wkbfrwq:1,2017-02-07T23:45:00Z,30.4162,-87.8228,2.5,3.8,1111122 
NERRS,ioos:station:NOAA.NERRS:wkbfrwq:1,2017-02-08T00:45:00Z,30.4162,-87.8228,2.46,3.0,1111122 
NERRS,ioos:station:NOAA.NERRS:wkbfrwq:1,2017-02-08T01:45:00Z,30.4162,-87.8228,2.37,2.7,1111122 
NERRS,ioos:station:NOAA.NERRS:wkbfrwq:1,2017-02-08T02:45:00Z,30.4162,-87.8228,2.44,2.8,1111122 
NERRS,ioos:station:NOAA.NERRS:wkbfrwq:1,2017-02-08T03:45:00Z,30.4162,-87.8228,2.51,3.0,1111122 
NERRS,ioos:station:NOAA.NERRS:wkbfrwq:1,2017-02-08T04:45:00Z,30.4162,-87.8228,2.43,2.7,1111122 
NERRS,ioos:station:NOAA.NERRS:wkbfrwq:1,2017-02-08T05:45:00Z,30.4162,-87.8228,2.34,2.4,1111122 
NERRS,ioos:station:NOAA.NERRS:wkbfrwq:1,2017-02-08T08:45:00Z,30.4162,-87.8228,0.0,1.9,1111122 
NERRS,ioos:station:NOAA.NERRS:wkbfrwq:1,2017-02-08T09:45:00Z,30.4162,-87.8228,2.05,1.8,1111122 
NERRS,ioos:station:NOAA.NERRS:wkbfrwq:1,2017-02-08T10:45:00Z,30.4162,-87.8228,2.01,1.7,1111122 
NERRS,ioos:station:NOAA.NERRS:wkbfrwq:1,2017-02-08T11:45:00Z,30.4162,-87.8228,1.96,1.6,1111122 
NERRS,ioos:station:NOAA.NERRS:wkbfrwq:1,2017-02-08T12:45:00Z,30.4162,-87.8228,1.91,1.6,1111122 
NERRS,ioos:station:NOAA.NERRS:wkbfrwq:1,2017-02-08T13:45:00Z,30.4162,-87.8228,1.89,1.5,1111122 
NERRS,ioos:station:NOAA.NERRS:wkbfrwq:1,2017-02-08T14:45:00Z,30.4162,-87.8228,1.88,1.4,1111122 
NERRS,ioos:station:NOAA.NERRS:wkbfrwq:1,2017-02-08T15:45:00Z,30.4162,-87.8228,1.94,1.6,1111122 
NERRS,ioos:station:NOAA.NERRS:wkbfrwq:1,2017-02-08T16:45:00Z,30.4162,-87.8228,2.01,1.5,1111122 
NERRS,ioos:station:NOAA.NERRS:wkbfrwq:1,2017-02-08T17:45:00Z,30.4162,-87.8228,2.08,1.6,1111122 
NERRS,ioos:station:NOAA.NERRS:wkbfrwq:1,2017-02-08T18:45:00Z,30.4162,-87.8228,2.15,1.6,1111122 
NERRS,ioos:station:NOAA.NERRS:wkbfrwq:1,2017-02-08T19:45:00Z,30.4162,-87.8228,2.2,1.7,1111122 
NERRS,ioos:station:NOAA.NERRS:wkbfrwq:1,2017-02-08T20:45:00Z,30.4162,-87.8228,2.26,1.7,1111122 
NERRS,ioos:station:NOAA.NERRS:wkbfrwq:1,2017-02-08T21:45:00Z,30.4162,-87.8228,2.31,1.8,1111122 
NERRS,ioos:station:NOAA.NERRS:wkbfrwq:1,2017-02-08T22:45:00Z,30.4162,-87.8228,2.35,1.8,1111122 
NERRS,ioos:station:NOAA.NERRS:wkbfrwq:1,2017-02-08T23:45:00Z,30.4162,-87.8228,2.42,1.9,1111122 
NERRS,ioos:station:NOAA.NERRS:wkbfrwq:1,2017-02-09T00:45:00Z,30.4162,-87.8228,2.51,2.1,1111122 
NERRS,ioos:station:NOAA.NERRS:wkbfrwq:1,2017-02-09T01:45:00Z,30.4162,-87.8228,2.54,2.3,1111122 
NERRS,ioos:station:NOAA.NERRS:wkbfrwq:1,2017-02-09T02:45:00Z,30.4162,-87.8228,2.54,2.1,1111122 
NERRS,ioos:station:NOAA.NERRS:wkbfrwq:1,2017-02-09T03:45:00Z,30.4162,-87.8228,2.57,2.1,1111122 
NERRS,ioos:station:NOAA.NERRS:wkbfrwq:1,2017-02-09T04:45:00Z,30.4162,-87.8228,2.57,2.2,1111122 
NERRS,ioos:station:NOAA.NERRS:wkbfrwq:1,2017-02-09T05:45:00Z,30.4162,-87.8228,2.48,1.8,1111122 
NERRS,ioos:station:NOAA.NERRS:wkbfrwq:1,2017-02-09T06:45:00Z,30.4162,-87.8228,2.4,1.6,1111122 
NERRS,ioos:station:NOAA.NERRS:wkbfrwq:1,2017-02-09T07:45:00Z,30.4162,-87.8228,2.28,1.5,1111122 
NERRS,ioos:station:NOAA.NERRS:wkbfrwq:1,2017-02-09T08:45:00Z,30.4162,-87.8228,2.17,1.3,1111122 
NERRS,ioos:station:NOAA.NERRS:wkbfrwq:1,2017-02-09T09:45:00Z,30.4162,-87.8228,2.08,1.2,1111122 
NERRS,ioos:station:NOAA.NERRS:wkbfrwq:1,2017-02-09T10:45:00Z,30.4162,-87.8228,2.01,1.1,1111122 
NERRS,ioos:station:NOAA.NERRS:wkbfrwq:1,2017-02-09T11:45:00Z,30.4162,-87.8228,1.98,1.0,1111122 
NERRS,ioos:station:NOAA.NERRS:wkbfrwq:1,2017-02-09T12:45:00Z,30.4162,-87.8228,1.92,1.0,1111122 
NERRS,ioos:station:NOAA.NERRS:wkbfrwq:1,2017-02-09T13:45:00Z,30.4162,-87.8228,1.84,0.8,1111122 
NERRS,ioos:station:NOAA.NERRS:wkbfrwq:1,2017-02-16T14:45:00Z,30.4162,-87.8228,1.86,6.0,1111122 
NERRS,ioos:station:NOAA.NERRS:wkbfrwq:1,2017-02-16T17:45:00Z,30.4162,-87.8228,2.06,3.9,1111122 
NERRS,ioos:station:NOAA.NERRS:wkbfrwq:1,2017-02-16T18:45:00Z,30.4162,-87.8228,2.1,4.8,1111122 
NERRS,ioos:station:NOAA.NERRS:wkbfrwq:1,2017-02-16T19:45:00Z,30.4162,-87.8228,2.11,5.1,1111122 
NERRS,ioos:station:NOAA.NERRS:wkbfrwq:1,2017-02-16T21:45:00Z,30.4162,-87.8228,2.1,5.8,1111122 
NERRS,ioos:station:NOAA.NERRS:wkbfrwq:1,2017-02-17T00:45:00Z,30.4162,-87.8228,0.0,4.9,1111122 
NERRS,ioos:station:NOAA.NERRS:wkbfrwq:1,2017-02-17T01:45:00Z,30.4162,-87.8228,2.0,4.1,1111122 
NERRS,ioos:station:NOAA.NERRS:wkbfrwq:1,2017-02-17T02:45:00Z,30.4162,-87.8228,1.98,5.7,1111122 
NERRS,ioos:station:NOAA.NERRS:wkbfrwq:1,2017-02-17T03:45:00Z,30.4162,-87.8228,1.95,4.6,1111122 
NERRS,ioos:station:NOAA.NERRS:wkbfrwq:1,2017-02-17T13:45:00Z,30.4162,-87.8228,1.96,4.2,1111122 
NERRS,ioos:station:NOAA.NERRS:wkbfrwq:1,2017-02-17T16:45:00Z,30.4162,-87.8228,2.08,4.2,1111122 
NERRS,ioos:station:NOAA.NERRS:wkbfrwq:1,2017-02-17T17:45:00Z,30.4162,-87.8228,2.13,4.1,1111122 
NERRS,ioos:station:NOAA.NERRS:wkbfrwq:1,2017-02-17T18:45:00Z,30.4162,-87.8228,2.16,4.1,1111122 
NERRS,ioos:station:NOAA.NERRS:wkbfrwq:1,2017-02-17T20:45:00Z,30.4162,-87.8228,2.15,4.0,1111122 
NERRS,ioos:station:NOAA.NERRS:wkbfrwq:1,2017-02-17T21:45:00Z,30.4162,-87.8228,2.14,4.3,1111122 
NERRS,ioos:station:NOAA.NERRS:wkbfrwq:1,2017-02-18T01:45:00Z,30.4162,-87.8228,1.95,3.1,1111122 
NERRS,ioos:station:NOAA.NERRS:wkbfrwq:1,2017-02-18T03:45:00Z,30.4162,-87.8228,1.93,5.3,1111122 
NERRS,ioos:station:NOAA.NERRS:wkbfrwq:1,2017-02-18T04:45:00Z,30.4162,-87.8228,1.99,4.4,1111122 
NERRS,ioos:station:NOAA.NERRS:wkbfrwq:1,2017-02-18T05:45:00Z,30.4162,-87.8228,2.04,3.8,1111122 
NERRS,ioos:station:NOAA.NERRS:wkbfrwq:1,2017-02-18T08:45:00Z,30.4162,-87.8228,1.79,1.9,1111122 
NERRS,ioos:station:NOAA.NERRS:wkbfrwq:1,2017-02-18T09:45:00Z,30.4162,-87.8228,1.72,2.0,1111122 
NERRS,ioos:station:NOAA.NERRS:wkbfrwq:1,2017-02-18T10:45:00Z,30.4162,-87.8228,1.71,3.8,1111122 
NERRS,ioos:station:NOAA.NERRS:wkbfrwq:1,2017-02-18T13:45:00Z,30.4162,-87.8228,2.08,2.5,1111122 
NERRS,ioos:station:NOAA.NERRS:wkbfrwq:1,2017-02-18T15:45:00Z,30.4162,-87.8228,2.06,2.9,1111122 
NERRS,ioos:station:NOAA.NERRS:wkbfrwq:1,2017-02-18T16:45:00Z,30.4162,-87.8228,2.09,2.9,1111122 
NERRS,ioos:station:NOAA.NERRS:wkbfrwq:1,2017-02-18T17:45:00Z,30.4162,-87.8228,2.17,2.6,1111122 
NERRS,ioos:station:NOAA.NERRS:wkbfrwq:1,2017-02-18T18:45:00Z,30.4162,-87.8228,2.23,2.8,1111122 
NERRS,ioos:station:NOAA.NERRS:wkbfrwq:1,2017-02-18T19:45:00Z,30.4162,-87.8228,2.25,2.9,1111122 
NERRS,ioos:station:NOAA.NERRS:wkbfrwq:1,2017-02-18T20:45:00Z,30.4162,-87.8228,2.24,2.8,1111122 
NERRS,ioos:station:NOAA.NERRS:wkbfrwq:1,2017-02-18T21:45:00Z,30.4162,-87.8228,2.27,2.9,1111122 
NERRS,ioos:station:NOAA.NERRS:wkbfrwq:1,2017-02-18T22:45:00Z,30.4162,-87.8228,2.33,2.9,1111122 
NERRS,ioos:station:NOAA.NERRS:wkbfrwq:1,2017-02-18T23:45:00Z,30.4162,-87.8228,2.3,3.0,1111122 
NERRS,ioos:station:NOAA.NERRS:wkbfrwq:1,2017-02-19T00:45:00Z,30.4162,-87.8228,2.27,2.9,1111122 
NERRS,ioos:station:NOAA.NERRS:wkbfrwq:1,2017-02-19T01:45:00Z,30.4162,-87.8228,2.23,2.8,1111122 
NERRS,ioos:station:NOAA.NERRS:wkbfrwq:1,2017-02-19T02:45:00Z,30.4162,-87.8228,2.18,2.6,1111122 
NERRS,ioos:station:NOAA.NERRS:wkbfrwq:1,2017-02-19T03:45:00Z,30.4162,-87.8228,2.15,2.7,1111122 
NERRS,ioos:station:NOAA.NERRS:wkbfrwq:1,2017-02-19T04:45:00Z,30.4162,-87.8228,2.09,2.6,1111122 
NERRS,ioos:station:NOAA.NERRS:wkbfrwq:1,2017-02-19T05:45:00Z,30.4162,-87.8228,2.02,2.5,1111122 
NERRS,ioos:station:NOAA.NERRS:wkbfrwq:1,2017-02-19T06:45:00Z,30.4162,-87.8228,1.96,2.3,1111122 
NERRS,ioos:station:NOAA.NERRS:wkbfrwq:1,2017-02-19T07:45:00Z,30.4162,-87.8228,1.94,2.3,1111122 
NERRS,ioos:station:NOAA.NERRS:wkbfrwq:1,2017-02-19T08:45:00Z,30.4162,-87.8228,1.94,2.5,1111122 
NERRS,ioos:station:NOAA.NERRS:wkbfrwq:1,2017-02-19T09:45:00Z,30.4162,-87.8228,1.93,2.2,1111122 
NERRS,ioos:station:NOAA.NERRS:wkbfrwq:1,2017-02-19T10:45:00Z,30.4162,-87.8228,1.94,2.1,1111122 
NERRS,ioos:station:NOAA.NERRS:wkbfrwq:1,2017-02-19T12:45:00Z,30.4162,-87.8228,1.96,2.9,1111122 
NERRS,ioos:station:NOAA.NERRS:wkbfrwq:1,2017-02-19T13:45:00Z,30.4162,-87.8228,1.99,2.9,1111122 
NERRS,ioos:station:NOAA.NERRS:wkbfrwq:1,2017-02-19T14:45:00Z,30.4162,-87.8228,2.03,3.0,1111122 
NERRS,ioos:station:NOAA.NERRS:wkbfrwq:1,2017-02-19T15:45:00Z,30.4162,-87.8228,2.06,3.2,1111122 
NERRS,ioos:station:NOAA.NERRS:wkbfrwq:1,2017-02-19T16:45:00Z,30.4162,-87.8228,2.1,3.3,1111122 
NERRS,ioos:station:NOAA.NERRS:wkbfrwq:1,2017-02-19T17:45:00Z,30.4162,-87.8228,2.15,3.6,1111122 
NERRS,ioos:station:NOAA.NERRS:wkbfrwq:1,2017-02-19T18:45:00Z,30.4162,-87.8228,2.18,3.8,1111122 
NERRS,ioos:station:NOAA.NERRS:wkbfrwq:1,2017-02-19T19:45:00Z,30.4162,-87.8228,2.23,4.1,1111122 
NERRS,ioos:station:NOAA.NERRS:wkbfrwq:1,2017-02-19T20:45:00Z,30.4162,-87.8228,2.27,4.2,1111122 
NERRS,ioos:station:NOAA.NERRS:wkbfrwq:1,2017-02-19T21:45:00Z,30.4162,-87.8228,2.3,3.8,1111122 
NERRS,ioos:station:NOAA.NERRS:wkbfrwq:1,2017-02-19T22:45:00Z,30.4162,-87.8228,2.32,3.7,1111122 
NERRS,ioos:station:NOAA.NERRS:wkbfrwq:1,2017-02-19T23:45:00Z,30.4162,-87.8228,2.33,3.7,1111122 
NERRS,ioos:station:NOAA.NERRS:wkbfrwq:1,2017-02-20T00:45:00Z,30.4162,-87.8228,2.32,3.5,1111122 
NERRS,ioos:station:NOAA.NERRS:wkbfrwq:1,2017-02-20T01:45:00Z,30.4162,-87.8228,2.28,3.6,1111122 
NERRS,ioos:station:NOAA.NERRS:wkbfrwq:1,2017-02-20T02:45:00Z,30.4162,-87.8228,2.25,3.4,1111122 
NERRS,ioos:station:NOAA.NERRS:wkbfrwq:1,2017-02-20T03:45:00Z,30.4162,-87.8228,2.22,3.0,1111122 
NERRS,ioos:station:NOAA.NERRS:wkbfrwq:1,2017-02-20T04:45:00Z,30.4162,-87.8228,2.15,2.7,1111122 
NERRS,ioos:station:NOAA.NERRS:wkbfrwq:1,2017-02-20T05:45:00Z,30.4162,-87.8228,2.08,2.4,1111122 
NERRS,ioos:station:NOAA.NERRS:wkbfrwq:1,2017-02-20T06:45:00Z,30.4162,-87.8228,2.01,2.1,1111122 
NERRS,ioos:station:NOAA.NERRS:wkbfrwq:1,2017-02-20T07:45:00Z,30.4162,-87.8228,1.96,2.1,1111122 
NERRS,ioos:station:NOAA.NERRS:wkbfrwq:1,2017-02-20T08:45:00Z,30.4162,-87.8228,1.94,2.3,1111122 
NERRS,ioos:station:NOAA.NERRS:wkbfrwq:1,2017-02-20T09:45:00Z,30.4162,-87.8228,1.93,2.7,1111122 
NERRS,ioos:station:NOAA.NERRS:wkbfrwq:1,2017-02-20T10:45:00Z,30.4162,-87.8228,1.91,2.7,1111122 
NERRS,ioos:station:NOAA.NERRS:wkbfrwq:1,2017-02-20T11:45:00Z,30.4162,-87.8228,1.89,2.7,1111122 